SCP
-0 0 -0 0 0 0 0 0 0 0 -0 -0 -0 -0 -0 -0 -0 -0 -0 -0 -0 -0 -0 -0 -0 -0 -0 -0 -0 -0 -0 -0 -0 -0 -0 -0 -0 -0 -0 -0 -0 0 -0
-0 -0 0 -0 0 0 0 0 0 0 0 0 -0 -0 -0 -0 -0 -0 -0 -0 -0 -0 -0 -0 -0 -0 -0 -0 -0 -0 -0 -0 -0 -0 -0 -0 -0 -0 -0 -0 -0 -0 -0
-0 -0 0 -0 -0 -0 0 0 0 0 0 0 0 0 -0 -0 0 -0 0 0 -0 -0 -0 -0 -0 -0 -0 -0 -0 -0 -0 -0 -0 -0 -0 -0 0 -0 -0 -0 -0 -0 -0
-0 -0 0 -0 -0 -0 -0 0 0 0 0 0 0 0 0 0 0 0 0 -0 -0 -0 -0 -0 -0 -0 -0 -0 -0 -0 -0 -0 -0 -0 0 -0 0 -0 -0 -0 -0 -0 0
0 -0 0 -0 0 -0 -0 -0 -0 0 0 0 0 0 0 0 0 -0 -0 -0 -0 -0 -0 -0 -0 -0 -0 -0 -0 -0 -0 -0 -0 0 0 0 0 -0 -0 -0 -0 -0 -0
0 0 0 0 0 0 0 0 0 0 -0 0 0 0 0 0 0 0 -0 -0 -0 -0 -0 -0 -0 -0 -0 0 0 0 0 -0 -0 0 0 0 -0 -0 -0 -0 -0 -0 -0
0 0 0 0 0 0 0 0 0 0 -0 0 0 0 0 0 0 0 0 0 0 0 -0 0 -0 -0 0 0 0 0 0 0 0 0 0 0 0 0 0 0 0 0 0
0 0 0 0 0 0 0 0 0 0 0 0 0 0 0 0 0 0 0 0 0 0 0 0 0 0 0 0 0 0 0 0 0 0 0 0 0 0 0 0 0 0 0
0 0 0 0 0 0 0 0 0 0 0 0 0 0 0 0 0 0 0 0 0 0 0 0 0 0 0 0 0 0 0 0 0 0 0 0 0 0 0 0 0 0 0
0 0 0 0 0 0 0 0 0 0 0 0 0 0 0 0 0 0 0 0 0 0 0 0 0 0 0 0 0 0 0 0 0 -0 0 0 0 0 0 0 0 0 0
0 0 0 0 0 0 0 0 0 0 0 0 0 0 0 0 0 0 0 0 0 0 0 0 -0 -0 -0 0 0 0 0 0 0 -0 -0 0 0 0 0 0 0 0 0
0 0 0 0 0 0 0 0 0 0 0 0 0 0 0 0 0 0 0 0 0 0 0 0 0 -0 -0 0 0 0 0 0 0 0 0 -0 0 0 0 0 0 0 0
0 0 0 0 0 0 0 0 0 0 0 0 0 0 0 0 0 0 0 0 0 0 0 0 0 0 0 0 0 0 0 0 0 0 0 -0 0 0 0 0 0 0 0
0 0 0 0 0 0 0 0 0 0 0 0 0 0 0 0 0 0 0 0 0 0 0 0 0 0 0 0 0 0 0 0 0 0 0 -0 0 0 0 0 0 0 0
0 0 0 0 0 0 0 0 0 0 0 0 0 0 0 0 0 0 0 0 0 0 0 0 0 0 0 0 0 0 0 0 0 0 0 0 0 0 0 0 0 0 0
0 0 0 0 0 0 0 0 0 0 0 0 0 0 0 0 0 0 0 0 0 0 0 0 0 0 0 0 0 0 0 0 0 0 0 0 0 0 0 0 0 0 0
0 0 0 0 0 0 0 0 0 0 0 0 0 0 0 0 0 0 0 0 0 0 0 0 0 0 0 0 0 0 0 0 0 0 0 0 0 0 0 0 0 0 0
0 0 0 0 0 0 0 0 0 0 0 0 0 0 0 0 0 0 0 0 0 0 0 0 0 0 0 0 0 0 0 0 0 0 0 0 0 0 0 0 0 0 0
0 0 0 0 0 0 0 0 0 0 0 0 0 0 0 0 0 0 0 0 0 0 0 0 0 0 0 0 0 0 0 0 0 0 0 0 0 0 0 0 0 0 0
0 0 0 0 0 0 0 0 0 0 0 0 0 0 0 0 0 0 0 0 0 0 0 0 0 0 0 0 0 0 0 0 0 0 0 0 0 0 0 0 0 0 0
0 0 0 0 0 0 0 0 0 0 0 0 0 0 0 0 0 0 0 0 0 1 0 0 0 0 0 0 0 0 0 0 0 0 0 0 0 0 0 0 0 0 0
0 0 0 0 0 0 0 0 0 0 0 0 0 0 0 0 0 0 0 0 0 0 1 1 0 0 0 0 0 0 0 0 0 0 0 0 0 0 0 0 0 0 0
0 0 0 0 0 0 0 0 0 0 0 0 0 0 0 0 0 0 0 0 0 0 0 0 0 0 0 0 0 0 0 0 0 0 0 0 0 0 0 0 0 0 0
0 0 0 0 0 0 0 0 0 0 0 0 0 0 0 0 0 0 0 0 0 0 0 0 0 0 0 0 0 0 0 0 0 0 0 0 0 0 0 0 0 0 0
0 0 0 0 0 0 0 0 0 0 0 0 0 0 0 0 0 0 0 0 0 0 0 0 0 0 0 0 0 0 0 0 0 0 0 0 0 0 0 0 0 0 0
0 0 0 0 0 0 0 0 0 0 0 0 0 0 0 0 0 0 0 0 0 0 0 0 0 0 0 0 0 0 0 0 0 0 0 0 0 0 0 0 0 0 0
Wind_Speed_500mb
16 23 19 19 15 14 12 12 12 11 14 16 17 19 22 24 23 23 23 26 29 21 18 17 16 12 13 14 17 21 25 30 25 25 29 26 23 21 23 31 36 27 35
12 18 19 19 18 13 10 9 10 9 12 15 18 21 24 23 22 21 22 26 26 19 17 17 15 14 14 17 21 22 25 25 24 21 22 21 22 20 26 27 26 28 33
13 17 19 19 18 14 10 7 11 8 10 11 14 21 21 20 19 17 17 20 26 17 14 17 15 14 15 17 18 26 25 26 22 20 25 29 31 21 22 21 34 31 32
16 13 17 20 19 15 11 11 8 10 9 8 8 15 18 15 14 14 14 25 27 12 11 13 12 11 13 13 9 7 21 21 19 18 21 28 32 21 16 24 27 28 32
14 16 15 18 18 16 13 12 10 12 7 6 6 7 12 17 12 13 23 30 18 8 7 8 7 9 10 9 9 10 14 20 18 18 23 25 22 14 14 19 25 29 27
13 14 12 17 18 17 15 15 12 13 10 4 3 7 11 15 10 15 22 18 10 6 5 5 5 8 10 8 8 7 16 18 17 18 19 22 19 16 14 15 23 23 24
13 16 12 15 17 16 16 16 16 14 13 6 3 5 11 14 10 11 16 13 9 7 5 4 4 8 9 8 7 7 13 15 14 10 9 14 16 17 12 11 17 19 20
12 15 16 14 13 17 17 16 17 16 16 12 9 8 9 14 18 14 14 13 9 5 4 5 5 8 10 8 5 6 11 13 9 7 7 9 12 10 14 9 12 12 15
9 12 15 13 11 14 20 20 20 19 19 16 14 13 14 15 18 20 18 16 13 8 5 5 8 11 12 10 7 5 8 7 7 8 6 2 6 7 8 4 6 8 11
6 9 14 15 17 16 19 23 24 23 21 19 18 18 19 19 18 20 20 19 17 12 8 6 9 13 15 14 12 8 7 6 7 9 7 4 5 4 4 4 4 5 6
7 13 16 15 19 19 21 23 25 27 25 24 24 22 24 23 24 24 22 22 21 18 15 11 12 15 18 19 18 15 12 9 9 7 4 1 2 2 2 1 1 2 3
8 10 16 18 21 23 26 26 27 28 28 30 30 28 28 28 27 28 27 27 26 26 22 18 16 19 21 22 23 20 15 13 12 11 6 2 5 5 5 4 4 4 3
23 21 21 24 30 35 32 32 31 32 28 29 34 35 33 33 33 34 34 33 35 34 32 26 22 22 23 25 26 26 23 19 15 13 11 7 8 10 10 10 9 8 8
38 39 39 38 36 35 38 37 39 36 37 39 39 40 42 41 40 40 40 39 38 40 37 34 28 25 27 27 29 31 30 26 22 19 15 14 11 15 15 15 15 14 13
45 42 40 39 41 46 45 43 42 43 46 46 47 43 45 48 47 46 46 46 45 44 45 41 35 32 31 32 32 34 36 33 29 25 22 20 18 18 20 20 20 19 18
33 33 31 35 36 38 44 49 50 49 48 47 55 52 47 48 53 54 54 54 54 50 47 47 43 39 36 36 37 37 40 40 38 33 29 29 26 23 25 26 25 24 23
45 44 42 40 40 41 42 43 48 54 56 57 55 56 53 53 51 57 63 63 62 59 53 51 50 48 44 44 44 42 39 45 45 41 36 36 33 31 31 31 30 30 28
39 39 37 36 38 40 44 46 47 49 55 61 63 63 59 58 57 56 59 68 69 66 63 62 59 55 51 51 50 46 49 47 48 48 43 40 41 39 38 37 35 33 32
43 41 38 36 34 35 45 49 50 51 53 56 62 67 69 67 64 62 63 61 67 74 73 70 68 64 59 57 52 50 50 53 53 51 50 46 44 46 47 44 41 39 37
36 36 39 42 43 47 53 55 56 56 55 58 61 64 68 72 73 70 67 62 63 67 72 76 74 69 68 63 54 56 53 55 54 55 56 54 52 50 50 49 45 44 41
34 37 40 45 45 52 57 63 69 72 71 73 67 65 65 69 74 78 78 73 64 63 69 73 76 79 73 69 60 61 62 59 63 64 61 61 63 59 57 55 52 49 46
46 50 55 60 64 66 70 71 77 82 87 86 80 75 69 67 70 76 81 82 75 66 61 70 73 76 77 74 73 71 55 67 73 71 70 72 71 67 66 62 59 57 54
66 69 74 76 79 80 80 82 85 89 94 94 87 85 79 68 65 67 75 81 84 77 69 65 72 74 75 75 74 70 29 33 58 62 75 80 79 74 71 69 65 63 60
59 60 64 69 73 76 77 78 77 80 86 86 85 86 83 73 66 64 67 73 81 86 80 71 71 64 74 78 79 81 84 49 39 36 49 56 62 72 75 74 71 68 64
59 57 56 57 58 58 55 57 60 65 66 71 78 79 77 75 66 62 60 65 70 79 86 85 72 70 70 68 76 77 81 87 80 64 52 40 49 60 55 54 58 62 66
61 65 61 58 56 50 50 46 50 55 59 67 67 71 70 68 66 61 58 60 65 67 74 83 84 75 68 72 67 77 87 73 76 82 80 81 82 81 69 62 57 53 54
Wind_Direction_500mb
151 165 174 178 161 155 136 130 126 115 99 84 97 113 120 122 121 116 117 117 116 113 90 84 81 72 82 82 89 90 94 107 113 98 102 102 92 79 70 70 77 72 81
150 176 179 182 177 171 159 140 127 114 105 89 105 120 122 122 121 118 121 122 125 106 100 87 79 84 90 97 101 102 106 108 103 96 97 97 94 75 74 84 88 81 80
184 171 190 187 186 179 176 173 146 135 110 91 113 130 127 123 124 124 135 138 140 111 90 86 80 91 102 105 106 103 107 107 102 96 94 93 84 79 65 77 79 82 77
186 207 208 195 192 192 189 180 165 132 117 82 99 143 132 111 129 128 135 148 144 116 93 83 84 103 115 118 95 85 123 111 119 106 100 106 85 94 66 72 85 82 81
172 209 195 196 196 196 197 189 195 144 164 89 83 151 145 115 120 115 128 138 139 128 92 77 93 121 126 122 94 80 92 114 105 97 104 117 114 120 58 83 84 80 78
165 193 191 194 199 201 202 197 190 163 194 154 116 158 160 140 147 137 146 148 149 141 117 109 120 139 143 137 111 85 104 108 103 104 109 110 96 89 67 82 90 85 83
163 193 208 196 200 208 208 205 200 189 200 215 228 194 180 166 171 172 172 176 168 152 143 149 149 157 162 151 131 109 114 106 105 99 117 130 130 110 98 72 86 85 88
167 179 200 218 211 211 217 215 215 214 212 228 243 225 207 197 193 202 200 197 191 181 162 170 180 175 177 170 146 103 118 117 97 91 127 152 152 144 134 87 77 70 80
171 186 200 214 226 245 233 223 222 225 228 236 239 236 222 213 215 216 209 213 209 213 206 186 190 189 188 186 188 155 138 120 100 103 119 137 149 143 148 120 61 70 65
206 200 214 221 229 235 246 241 230 227 234 239 242 240 235 227 229 223 219 221 221 226 225 219 200 197 203 200 201 201 184 165 133 115 106 103 113 125 124 118 74 59 62
219 230 249 237 238 244 246 247 247 243 239 239 243 242 240 239 237 239 234 233 230 231 236 235 217 209 211 212 211 214 208 205 188 166 134 49 192 219 216 174 36 36 39
271 251 247 253 259 253 249 246 250 249 253 254 251 250 247 243 242 241 243 242 239 237 243 245 232 218 217 217 218 226 223 218 207 208 201 231 240 255 264 264 272 289 319
290 284 269 252 255 256 259 256 253 252 251 256 257 252 252 249 245 244 244 243 238 238 238 241 241 229 223 222 223 226 227 228 232 232 229 234 265 266 269 273 277 280 282
289 291 288 277 263 253 257 259 257 257 252 252 255 256 254 252 250 248 247 246 247 244 245 244 245 238 229 227 226 226 228 233 237 237 244 245 255 268 269 273 275 275 278
285 288 286 282 273 267 260 258 258 260 259 264 264 259 258 255 253 254 252 249 250 247 246 248 245 245 240 235 231 230 230 234 239 242 247 248 253 262 266 268 270 274 276
293 292 291 285 284 275 270 265 260 256 256 255 263 263 256 259 257 254 254 252 251 249 248 248 248 248 249 243 239 235 234 235 238 244 246 251 253 260 267 265 267 270 274
292 288 282 278 277 281 280 274 269 263 258 254 252 256 258 257 260 262 255 256 251 251 249 246 246 247 244 246 242 239 236 236 239 244 248 252 256 257 264 266 269 267 269
281 282 278 270 272 281 283 278 275 270 264 259 255 252 252 255 253 259 265 259 258 254 252 249 249 246 247 247 247 242 241 238 240 242 247 251 257 260 262 265 268 270 270
282 281 273 264 264 270 275 277 278 276 273 267 260 256 251 250 252 251 255 266 264 260 256 255 254 253 250 249 249 249 245 242 242 244 248 250 256 262 262 264 266 267 266
278 275 271 265 267 270 279 283 284 283 290 288 273 263 257 252 249 250 251 254 263 268 266 258 258 258 257 256 249 253 253 248 248 247 250 254 256 261 263 262 262 262 263
271 269 266 266 262 267 272 277 282 284 289 292 281 273 266 258 252 249 250 249 252 259 264 264 265 262 259 258 251 248 251 252 252 250 252 253 254 257 260 260 261 261 261
281 273 269 267 268 270 274 276 277 280 281 285 283 275 268 266 260 253 250 250 249 251 258 264 265 267 265 259 251 247 252 251 255 251 251 251 253 255 258 259 261 263 263
292 285 280 278 277 275 273 275 274 274 276 277 278 276 271 265 262 258 252 249 249 250 252 253 259 261 264 266 258 245 237 233 258 261 255 254 254 254 258 259 260 262 264
312 302 295 288 286 281 275 272 270 268 270 274 279 276 272 267 264 259 253 249 247 248 248 250 249 260 256 258 264 257 242 245 245 271 260 260 259 258 258 260 263 264 264
331 322 310 303 299 291 277 268 265 264 266 277 281 282 276 269 264 263 257 249 247 246 247 247 250 252 249 266 259 258 252 248 252 243 261 270 264 265 264 265 266 266 266
335 330 325 315 305 295 281 270 268 271 276 278 280 282 279 272 266 263 261 254 247 245 246 248 248 250 254 255 260 259 258 252 256 257 247 256 265 269 269 267 266 269 272
Wind_Speed_850mb
16 23 19 19 15 14 12 12 12 11 14 16 17 19 22 24 23 23 23 26 29 21 18 17 16 12 13 14 17 21 25 30 25 25 29 26 23 21 23 31 36 27 35
12 18 19 19 18 13 10 9 10 9 12 15 18 21 24 23 22 21 22 26 26 19 17 17 15 14 14 17 21 22 25 25 24 21 22 21 22 20 26 27 26 28 33
13 17 19 19 18 14 10 7 11 8 10 11 14 21 21 20 19 17 17 20 26 17 14 17 15 14 15 17 18 26 25 26 22 20 25 29 31 21 22 21 34 31 32
16 13 17 20 19 15 11 11 8 10 9 8 8 15 18 15 14 14 14 25 27 12 11 13 12 11 13 13 9 7 21 21 19 18 21 28 32 21 16 24 27 28 32
14 16 15 18 18 16 13 12 10 12 7 6 6 7 12 17 12 13 23 30 18 8 7 8 7 9 10 9 9 10 14 20 18 18 23 25 22 14 14 19 25 29 27
13 14 12 17 18 17 15 15 12 13 10 4 3 7 11 15 10 15 22 18 10 6 5 5 5 8 10 8 8 7 16 18 17 18 19 22 19 16 14 15 23 23 24
13 16 12 15 17 16 16 16 16 14 13 6 3 5 11 14 10 11 16 13 9 7 5 4 4 8 9 8 7 7 13 15 14 10 9 14 16 17 12 11 17 19 20
12 15 16 14 13 17 17 16 17 16 16 12 9 8 9 14 18 14 14 13 9 5 4 5 5 8 10 8 5 6 11 13 9 7 7 9 12 10 14 9 12 12 15
9 12 15 13 11 14 20 20 20 19 19 16 14 13 14 15 18 20 18 16 13 8 5 5 8 11 12 10 7 5 8 7 7 8 6 2 6 7 8 4 6 8 11
6 9 14 15 17 16 19 23 24 23 21 19 18 18 19 19 18 20 20 19 17 12 8 6 9 13 15 14 12 8 7 6 7 9 7 4 5 4 4 4 4 5 6
7 13 16 15 19 19 21 23 25 27 25 24 24 22 24 23 24 24 22 22 21 18 15 11 12 15 18 19 18 15 12 9 9 7 4 1 2 2 2 1 1 2 3
8 10 16 18 21 23 26 26 27 28 28 30 30 28 28 28 27 28 27 27 26 26 22 18 16 19 21 22 23 20 15 13 12 11 6 2 5 5 5 4 4 4 3
23 21 21 24 30 35 32 32 31 32 28 29 34 35 33 33 33 34 34 33 35 34 32 26 22 22 23 25 26 26 23 19 15 13 11 7 8 10 10 10 9 8 8
38 39 39 38 36 35 38 37 39 36 37 39 39 40 42 41 40 40 40 39 38 40 37 34 28 25 27 27 29 31 30 26 22 19 15 14 11 15 15 15 15 14 13
45 42 40 39 41 46 45 43 42 43 46 46 47 43 45 48 47 46 46 46 45 44 45 41 35 32 31 32 32 34 36 33 29 25 22 20 18 18 20 20 20 19 18
33 33 31 35 36 38 44 49 50 49 48 47 55 52 47 48 53 54 54 54 54 50 47 47 43 39 36 36 37 37 40 40 38 33 29 29 26 23 25 26 25 24 23
45 44 42 40 40 41 42 43 48 54 56 57 55 56 53 53 51 57 63 63 62 59 53 51 50 48 44 44 44 42 39 45 45 41 36 36 33 31 31 31 30 30 28
39 39 37 36 38 40 44 46 47 49 55 61 63 63 59 58 57 56 59 68 69 66 63 62 59 55 51 51 50 46 49 47 48 48 43 40 41 39 38 37 35 33 32
43 41 38 36 34 35 45 49 50 51 53 56 62 67 69 67 64 62 63 61 67 74 73 70 68 64 59 57 52 50 50 53 53 51 50 46 44 46 47 44 41 39 37
36 36 39 42 43 47 53 55 56 56 55 58 61 64 68 72 73 70 67 62 63 67 72 76 74 69 68 63 54 56 53 55 54 55 56 54 52 50 50 49 45 44 41
34 37 40 45 45 52 57 63 69 72 71 73 67 65 65 69 74 78 78 73 64 63 69 73 76 79 73 69 60 61 62 59 63 64 61 61 63 59 57 55 52 49 46
46 50 55 60 64 66 70 71 77 82 87 86 80 75 69 67 70 76 81 82 75 66 61 70 73 76 77 74 73 71 55 67 73 71 70 72 71 67 66 62 59 57 54
66 69 74 76 79 80 80 82 85 89 94 94 87 85 79 68 65 67 75 81 84 77 69 65 72 74 75 75 74 70 29 33 58 62 75 80 79 74 71 69 65 63 60
59 60 64 69 73 76 77 78 77 80 86 86 85 86 83 73 66 64 67 73 81 86 80 71 71 64 74 78 79 81 84 49 39 36 49 56 62 72 75 74 71 68 64
59 57 56 57 58 58 55 57 60 65 66 71 78 79 77 75 66 62 60 65 70 79 86 85 72 70 70 68 76 77 81 87 80 64 52 40 49 60 55 54 58 62 66
61 65 61 58 56 50 50 46 50 55 59 67 67 71 70 68 66 61 58 60 65 67 74 83 84 75 68 72 67 77 87 73 76 82 80 81 82 81 69 62 57 53 54
Wind_Direction_850mb
151 165 174 178 161 155 136 130 126 115 99 84 97 113 120 122 121 116 117 117 116 113 90 84 81 72 82 82 89 90 94 107 113 98 102 102 92 79 70 70 77 72 81
150 176 179 182 177 171 159 140 127 114 105 89 105 120 122 122 121 118 121 122 125 106 100 87 79 84 90 97 101 102 106 108 103 96 97 97 94 75 74 84 88 81 80
184 171 190 187 186 179 176 173 146 135 110 91 113 130 127 123 124 124 135 138 140 111 90 86 80 91 102 105 106 103 107 107 102 96 94 93 84 79 65 77 79 82 77
186 207 208 195 192 192 189 180 165 132 117 82 99 143 132 111 129 128 135 148 144 116 93 83 84 103 115 118 95 85 123 111 119 106 100 106 85 94 66 72 85 82 81
172 209 195 196 196 196 197 189 195 144 164 89 83 151 145 115 120 115 128 138 139 128 92 77 93 121 126 122 94 80 92 114 105 97 104 117 114 120 58 83 84 80 78
165 193 191 194 199 201 202 197 190 163 194 154 116 158 160 140 147 137 146 148 149 141 117 109 120 139 143 137 111 85 104 108 103 104 109 110 96 89 67 82 90 85 83
163 193 208 196 200 208 208 205 200 189 200 215 228 194 180 166 171 172 172 176 168 152 143 149 149 157 162 151 131 109 114 106 105 99 117 130 130 110 98 72 86 85 88
167 179 200 218 211 211 217 215 215 214 212 228 243 225 207 197 193 202 200 197 191 181 162 170 180 175 177 170 146 103 118 117 97 91 127 152 152 144 134 87 77 70 80
171 186 200 214 226 245 233 223 222 225 228 236 239 236 222 213 215 216 209 213 209 213 206 186 190 189 188 186 188 155 138 120 100 103 119 137 149 143 148 120 61 70 65
206 200 214 221 229 235 246 241 230 227 234 239 242 240 235 227 229 223 219 221 221 226 225 219 200 197 203 200 201 201 184 165 133 115 106 103 113 125 124 118 74 59 62
219 230 249 237 238 244 246 247 247 243 239 239 243 242 240 239 237 239 234 233 230 231 236 235 217 209 211 212 211 214 208 205 188 166 134 49 192 219 216 174 36 36 39
271 251 247 253 259 253 249 246 250 249 253 254 251 250 247 243 242 241 243 242 239 237 243 245 232 218 217 217 218 226 223 218 207 208 201 231 240 255 264 264 272 289 319
290 284 269 252 255 256 259 256 253 252 251 256 257 252 252 249 245 244 244 243 238 238 238 241 241 229 223 222 223 226 227 228 232 232 229 234 265 266 269 273 277 280 282
289 291 288 277 263 253 257 259 257 257 252 252 255 256 254 252 250 248 247 246 247 244 245 244 245 238 229 227 226 226 228 233 237 237 244 245 255 268 269 273 275 275 278
285 288 286 282 273 267 260 258 258 260 259 264 264 259 258 255 253 254 252 249 250 247 246 248 245 245 240 235 231 230 230 234 239 242 247 248 253 262 266 268 270 274 276
293 292 291 285 284 275 270 265 260 256 256 255 263 263 256 259 257 254 254 252 251 249 248 248 248 248 249 243 239 235 234 235 238 244 246 251 253 260 267 265 267 270 274
292 288 282 278 277 281 280 274 269 263 258 254 252 256 258 257 260 262 255 256 251 251 249 246 246 247 244 246 242 239 236 236 239 244 248 252 256 257 264 266 269 267 269
281 282 278 270 272 281 283 278 275 270 264 259 255 252 252 255 253 259 265 259 258 254 252 249 249 246 247 247 247 242 241 238 240 242 247 251 257 260 262 265 268 270 270
282 281 273 264 264 270 275 277 278 276 273 267 260 256 251 250 252 251 255 266 264 260 256 255 254 253 250 249 249 249 245 242 242 244 248 250 256 262 262 264 266 267 266
278 275 271 265 267 270 279 283 284 283 290 288 273 263 257 252 249 250 251 254 263 268 266 258 258 258 257 256 249 253 253 248 248 247 250 254 256 261 263 262 262 262 263
271 269 266 266 262 267 272 277 282 284 289 292 281 273 266 258 252 249 250 249 252 259 264 264 265 262 259 258 251 248 251 252 252 250 252 253 254 257 260 260 261 261 261
281 273 269 267 268 270 274 276 277 280 281 285 283 275 268 266 260 253 250 250 249 251 258 264 265 267 265 259 251 247 252 251 255 251 251 251 253 255 258 259 261 263 263
292 285 280 278 277 275 273 275 274 274 276 277 278 276 271 265 262 258 252 249 249 250 252 253 259 261 264 266 258 245 237 233 258 261 255 254 254 254 258 259 260 262 264
312 302 295 288 286 281 275 272 270 268 270 274 279 276 272 267 264 259 253 249 247 248 248 250 249 260 256 258 264 257 242 245 245 271 260 260 259 258 258 260 263 264 264
331 322 310 303 299 291 277 268 265 264 266 277 281 282 276 269 264 263 257 249 247 246 247 247 250 252 249 266 259 258 252 248 252 243 261 270 264 265 264 265 266 266 266
335 330 325 315 305 295 281 270 268 271 276 278 280 282 279 272 266 263 261 254 247 245 246 248 248 250 254 255 260 259 258 252 256 257 247 256 265 269 269 267 266 269 272